Date String (YYYY-MM-DD hh:mm:ss) UTC,Instrument flags,Ambient pressure (hPa),Sample flow (lpm),Bypass flow (lpm),Sample temperature (°C),Ambient temperature (°C),ASC tube jacket temperature (°C),LED temperature (°C),Box temperature (°C),Sample RH (%),Span deviation,Mass concentration (μg/m³),Mass concentration (μg/m³),Mass concentration (μg/m³)
DateTimeUTC,F1_M11,P_M11,Q1_M11,Q2_M11,T1_M11,T2_M11,T3_M11,T4_M11,T5_M11,U1_M11,ZSPAN_M11,X0_M11,X2_M11,X1_M11
2022-11-11 22:00:00,,0826.4,5.00,0.00,23.5,22.3,00.0,32.2,25.4,09.2,0000.0,0011.97,0006.65,0006.19
2022-11-11 22:01:00,,0826.5,5.01,0.00,23.5,22.3,00.0,32.2,25.4,09.3,-000.2,0012.36,0006.65,0006.17
2022-11-11 22:02:00,,0826.5,5.00,0.00,23.5,22.3,00.0,32.2,25.4,09.2,-000.4,0012.69,0006.61,0006.17
2022-11-11 22:03:00,,0826.4,5.00,0.00,23.5,22.3,00.0,32.3,25.4,09.2,-000.8,0012.76,0006.64,0006.18
2022-11-11 22:04:00,,0826.3,5.01,0.00,23.5,22.3,00.0,32.3,25.4,09.3,-000.3,0012.70,0006.63,0006.19
2022-11-11 22:05:00,,0826.3,5.00,0.00,23.5,22.3,00.0,32.3,25.5,09.3,-000.4,0012.74,0006.63,0006.21
2022-11-11 22:06:00,,0826.4,5.00,0.00,23.5,22.4,00.0,32.3,25.5,09.3,-000.3,0012.62,0006.66,0006.22
2022-11-11 22:07:00,,0826.4,5.00,0.00,23.6,22.4,00.0,32.3,25.5,09.3,-000.5,0012.86,0006.72,0006.26
2022-11-11 22:08:00,,0826.4,5.00,0.00,23.6,22.4,00.0,32.3,25.5,09.3,-001.1,0013.42,0006.78,0006.30
2022-11-11 22:09:00,,0826.4,5.00,0.00,23.6,22.4,00.0,32.3,25.5,09.3,-001.5,0013.78,0006.78,0006.32
2022-11-11 22:10:00,,0826.5,4.99,0.00,23.6,22.4,00.0,32.3,25.5,09.4,-001.7,0013.98,0006.83,0006.33
2022-11-11 22:11:00,,0826.5,5.01,0.00,23.6,22.4,00.0,32.3,25.5,09.4,-002.1,0013.90,0006.88,0006.37
2022-11-11 22:12:00,,0826.5,5.00,0.00,23.6,22.4,00.0,32.3,25.5,09.4,-002.0,0013.48,0006.89,0006.41
2022-11-11 22:13:00,,0826.4,5.00,0.00,23.6,22.4,00.0,32.3,25.5,09.5,-001.7,0013.16,0006.94,0006.46
2022-11-11 22:14:00,,0826.4,4.99,0.00,23.6,22.4,00.0,32.3,25.5,09.5,-001.0,0012.83,0006.93,0006.47
2022-11-11 22:15:00,,0826.5,5.01,0.00,23.6,22.4,00.0,32.4,25.5,09.4,-000.3,0012.74,0006.93,0006.49
2022-11-11 22:16:00,,0826.5,5.01,0.00,23.6,22.4,00.0,32.4,25.5,09.4,0000.0,0013.39,0006.98,0006.51
2022-11-11 22:17:00,,0826.4,5.00,0.00,23.6,22.3,00.0,32.3,25.5,09.4,-000.1,0013.43,0007.01,0006.55
2022-11-11 22:18:00,,0826.4,5.00,0.00,23.6,22.3,00.0,32.3,25.5,09.5,0001.1,0013.09,0007.02,0006.56
2022-11-11 22:19:00,,0826.4,5.00,0.00,23.6,22.3,00.0,32.4,25.5,09.5,0002.1,0012.62,0007.02,0006.57
2022-11-11 22:20:00,,0826.4,5.00,0.00,23.6,22.3,00.0,32.4,25.5,09.4,0001.6,0011.76,0007.04,0006.58
2022-11-11 22:21:00,,0826.4,4.99,0.00,23.6,22.4,00.0,32.3,25.5,09.4,0001.0,0011.41,0007.02,0006.58
2022-11-11 22:22:00,,0826.5,5.00,0.00,23.6,22.4,00.0,32.3,25.5,09.3,0000.9,0011.37,0006.99,0006.54
2022-11-11 22:23:00,,0826.5,5.00,0.00,23.6,22.4,00.0,32.4,25.5,09.3,0000.3,0011.33,0006.94,0006.51
2022-11-11 22:24:00,,0826.5,4.99,0.00,23.6,22.4,00.0,32.4,25.5,09.4,0000.4,0011.36,0006.91,0006.48
2022-11-11 22:25:00,,0826.5,5.00,0.00,23.6,22.4,00.0,32.4,25.5,09.4,0000.3,0011.79,0006.95,0006.49
2022-11-11 22:26:00,,0826.5,5.01,0.00,23.6,22.4,00.0,32.4,25.5,09.4,0000.0,0012.03,0006.94,0006.48
2022-11-11 22:27:00,,0826.4,5.00,0.00,23.6,22.4,00.0,32.4,25.5,09.3,0000.1,0011.53,0006.92,0006.45
2022-11-11 22:28:00,,0826.5,5.00,0.00,23.6,22.4,00.0,32.4,25.5,09.3,0000.4,0011.59,0006.91,0006.44
2022-11-11 22:29:00,,0826.5,5.00,0.00,23.6,22.4,00.0,32.4,25.5,09.3,0000.1,0011.82,0006.89,0006.42
2022-11-11 22:30:00,,0826.5,5.02,0.00,23.6,22.4,00.0,32.4,25.5,09.3,0000.2,0011.89,0006.88,0006.39
2022-11-11 22:31:00,,0826.5,5.00,0.00,23.6,22.3,00.0,32.4,25.5,09.4,0000.7,0012.04,0006.87,0006.39
2022-11-11 22:32:00,,0826.5,5.00,0.00,23.6,22.2,00.0,32.4,25.5,09.5,0001.0,0012.37,0006.91,0006.41
2022-11-11 22:33:00,,0826.5,4.99,0.00,23.6,22.1,00.0,32.4,25.5,09.5,0001.9,0012.55,0006.96,0006.43
2022-11-11 22:34:00,,0826.5,5.00,0.00,23.6,22.2,00.0,32.4,25.5,09.5,0002.1,0012.80,0007.04,0006.46
2022-11-11 22:35:00,,0826.5,5.00,0.00,23.6,22.2,00.0,32.4,25.5,09.5,0001.6,0013.00,0007.08,0006.47
2022-11-11 22:36:00,,0826.4,5.00,0.00,23.6,22.3,00.0,32.4,25.5,09.5,0001.3,0013.38,0007.10,0006.46
2022-11-11 22:37:00,,0826.4,5.00,0.00,23.6,22.4,00.0,32.4,25.5,09.5,0001.1,0013.28,0007.13,0006.46
2022-11-11 22:38:00,,0826.4,4.99,0.00,23.6,22.4,00.0,32.4,25.5,09.5,0001.4,0013.36,0007.19,0006.48
2022-11-11 22:39:00,,0826.4,4.99,0.00,23.7,22.4,00.0,32.4,25.5,09.5,0001.1,0013.06,0007.23,0006.48
2022-11-11 22:40:00,,0826.4,5.00,0.00,23.7,22.5,00.0,32.4,25.5,09.4,0001.3,0012.93,0007.24,0006.50
2022-11-11 22:41:00,,0826.4,5.00,0.00,23.7,22.5,00.0,32.4,25.6,09.5,0001.1,0012.95,0007.27,0006.51
2022-11-11 22:42:00,,0826.4,5.00,0.00,23.7,22.5,00.0,32.4,25.6,09.5,0000.9,0013.07,0007.43,0006.60
2022-11-11 22:43:00,,0826.4,5.00,0.00,23.7,22.4,00.0,32.4,25.5,09.5,0000.9,0013.26,0007.63,0006.73
2022-11-11 22:44:00,,0826.3,5.00,0.00,23.7,22.4,00.0,32.4,25.5,09.5,0000.5,0013.89,0007.61,0006.74
2022-11-11 22:45:00,,0826.3,5.00,0.00,23.7,22.4,00.0,32.4,25.5,09.5,0001.0,0014.51,0007.60,0006.75
2022-11-11 22:46:00,,0826.3,5.00,0.00,23.7,22.4,00.0,32.4,25.5,09.5,0001.5,0014.48,0007.64,0006.78
2022-11-11 22:47:00,,0826.3,5.00,0.00,23.7,22.4,00.0,32.4,25.5,09.5,0001.4,0013.77,0007.64,0006.79
2022-11-11 22:48:00,,0826.4,4.99,0.00,23.7,22.3,00.0,32.4,25.5,09.5,0001.5,0013.68,0007.62,0006.82
2022-11-11 22:49:00,,0826.4,5.01,0.00,23.7,22.3,00.0,32.5,25.5,09.5,0001.5,0013.89,0007.57,0006.82
2022-11-11 22:50:00,,0826.5,4.99,0.00,23.6,22.2,00.0,32.4,25.5,09.5,0001.4,0013.95,0007.55,0006.83
2022-11-11 22:51:00,,0826.4,5.01,0.00,23.6,22.2,00.0,32.4,25.5,09.5,0001.1,0014.13,0007.54,0006.83
2022-11-11 22:52:00,,0826.5,5.00,0.00,23.6,22.2,00.0,32.4,25.5,09.6,0000.8,0014.69,0007.54,0006.83
2022-11-11 22:53:00,,0826.5,5.00,0.00,23.6,22.2,00.0,32.4,25.5,09.6,0000.5,0014.36,0007.45,0006.76
2022-11-11 22:54:00,,0826.5,4.99,0.00,23.6,22.3,00.0,32.4,25.5,09.6,0000.4,0013.76,0007.18,0006.59
2022-11-11 22:55:00,,0826.5,4.99,0.00,23.6,22.3,00.0,32.4,25.5,09.5,0000.4,0012.88,0007.16,0006.59
2022-11-11 22:56:00,,0826.5,5.01,0.00,23.6,22.3,00.0,32.4,25.5,09.5,-000.0,0011.98,0007.14,0006.58
2022-11-11 22:57:00,,0826.5,5.00,0.00,23.6,22.3,00.0,32.4,25.5,09.5,-000.2,0012.49,0007.11,0006.57
2022-11-11 22:58:00,,0826.5,5.00,0.00,23.6,22.3,00.0,32.4,25.5,09.5,-000.4,0012.89,0007.12,0006.57
2022-11-11 22:59:00,,0826.5,5.00,0.00,23.6,22.3,00.0,32.4,25.5,09.5,-000.1,0012.75,0007.10,0006.57
